2024-247S

Last updated on Tue Jan 21 2025 00:02:04 GMT+0000 (Coordinated Universal Time)

1 62393U 24247S 25020.52177519 .00030977 00000+0 14359-2 0 9997 2 62393 44.9909 199.1018 0005834 267.5822 92.4390 15.19590851 4714
UTC large
Height (km)
Speed (km/s)
/
Latitude / Longitude
Inclination (degrees)
Orbital Period (minutes)
Azimuth
Elevation
Range (km)
Doppler Factor

Next 0 passes for location: London (51.5072 / 0.1276)

Sorry there are no passes over London.